Weather in Golubovka

Russia / Primorsky Krai     42°52′48″N   132°59′28″E
temp.,
°C
wind,
m/s
gust,
m/s
humid.,
%
clouds,
%
prec.,
mm/h
press.,
hPa
HPBL,
m
28 june, tue
tue2801:00+18se0183100 0.1 100714
04:00+18ene11100100 5.1 100464
07:00+19sse24100100 28.2 1002251
10:00+18sse29100100 58.8 999595
13:00+18s28100100 35.8 997577
16:00+18ssw311100100 67.4 997620
19:00+18ssw2799100 16.1 997483
22:00+18se11100100 16.3 999118
29 june, wed
wed2901:00+18sse11100100 0.8 998114
04:00+18se11100100 0.8 998135
07:00+18se12100100 0.8 1000244
10:00+17se1299100 4.9 1001216
13:00+17ene1298100 3.1 1003158
16:00+19s119294 3.2 1004310
19:00+19ssw1293100 0.1 1005114
22:00+17sw1295100 0.1 100872
30 june, thu
thu3001:00+16sse1195100 0.0 100967
04:00+16ene1191100 0.0 100949
07:00+16ese1193100 0.1 101035
10:00+17se1386100 0.2 1011287
13:00+20se2370100 0.0 1011567
16:00+22se2364100 0.0 1010673
19:00+20sse2375100 0.0 1011427
22:00+17sse1182100 0.0 101268
1 july, fri
fri101:00+16sse1181100 0.0 101266
04:00+15se1183100 0.1 101340
07:00+15ese1187100 0.1 101336
10:00+16se1185100 0.2 1014181
13:00+18sse118098 0.0 1013339
16:00+24ssw336696 0.0 1012873
19:00+19ssw2282100 0.0 1012338
22:00+15sw1296100 0.0 101378
2 july, sat
sat201:00+16wsw1195100 0.0 101273
04:00+16ne0098100 0.0 101247
07:00+17n119396 0.1 1011125
10:00+22sw1278100 0.2 1011473
13:00+26ssw2363100 0.0 1009958
16:00+25sw3468100 0.0 1009731
19:00+23sw358277 0.0 1009305
22:00+18sw229893 0.0 100941